Wind_Speed
21 20 20 19 19 18 18 17 16 16 16 14 14 13 11 10 8 6 5 8 11 13 14 15 15 15 16 17 17 7 10 13 16 17 17 16 17 16 14 8 7 15 9 16 16 15 12
22 21 21 20 19 18 19 18 17 16 16 16 14 14 13 11 9 7 5 6 9 11 13 14 14 15 16 17 18 16 10 11 13 16 18 17 16 13 9 6 14 6 16 11 15 15 13
23 22 22 22 21 20 19 18 19 18 17 16 15 14 13 12 10 8 6 5 7 9 11 12 13 16 17 17 14 15 15 12 12 16 18 18 17 17 9 13 18 12 11 16 15 14 17
22 23 24 25 25 24 23 21 19 18 18 17 16 15 14 13 11 9 8 7 7 9 11 12 14 15 16 16 16 12 13 13 15 20 21 22 20 21 14 12 10 15 11 11 11 16 18
26 24 24 23 23 22 23 23 22 20 19 18 17 16 15 14 13 11 9 8 9 10 11 13 14 15 16 16 16 14 13 14 15 19 19 17 17 19 19 12 8 13 9 17 18 14 15
24 20 18 17 18 18 18 19 20 21 20 19 17 16 16 15 14 13 12 11 10 12 13 14 14 12 14 16 16 16 15 17 17 18 19 18 18 20 19 19 16 12 16 20 15 19 12
23 22 21 20 21 18 19 18 17 18 19 21 19 17 16 16 17 15 14 12 12 13 15 15 12 18 9 14 16 18 19 18 19 18 19 18 20 26 19 22 12 4 12 12 12 16 20
27 25 23 22 21 20 19 17 17 15 16 17 20 19 17 16 17 18 15 13 14 10 10 15 17 16 16 9 15 19 22 22 22 23 18 18 24 19 9 12 15 13 7 10 11 16 14
26 28 24 21 21 20 19 17 15 15 14 14 16 19 19 18 17 16 17 14 14 12 11 12 15 19 16 13 16 17 21 23 22 22 23 18 8 14 18 18 18 19 17 14 13 20 8
27 25 25 22 19 20 19 17 14 14 14 12 13 16 19 18 18 17 15 18 15 12 8 13 19 21 20 18 17 17 20 23 20 21 17 19 16 13 15 24 20 18 15 17 9 15 10
24 24 24 23 20 19 17 17 15 14 15 13 11 13 16 18 17 15 13 15 16 15 3 8 17 18 21 21 12 18 26 25 18 18 23 11 15 20 20 13 13 15 14 16 20 16 12
23 26 25 23 21 19 18 16 15 15 16 14 11 10 14 16 17 14 13 16 18 10 7 11 11 18 22 27 21 17 25 23 19 16 20 14 12 11 13 20 21 13 15 11 13 14 8
26 27 26 22 22 20 19 18 15 16 15 13 10 8 9 12 13 15 15 19 14 8 8 11 14 18 21 22 25 18 26 27 18 15 17 19 17 14 15 14 16 18 16 6 4 4 6
24 25 25 23 20 20 19 18 17 16 16 13 8 6 7 9 8 15 19 25 9 8 12 11 11 16 16 16 14 19 20 24 27 19 7 18 10 19 19 18 14 24 24 7 6 5 4
21 22 22 22 19 19 17 17 15 15 15 14 7 4 6 9 10 13 22 22 9 6 13 11 13 20 15 21 10 20 19 16 20 24 12 19 11 15 17 25 20 15 25 22 7 11 3
24 23 22 22 20 17 17 15 15 13 13 13 8 6 5 6 11 16 25 21 10 7 7 16 13 15 16 21 15 16 21 19 22 26 24 10 6 10 14 15 22 15 19 10 10 3 5
23 24 23 22 21 19 16 15 15 13 12 11 10 9 7 4 11 21 22 23 22 19 10 16 14 17 13 20 17 19 15 14 24 21 29 19 7 6 11 11 16 18 13 9 8 9 2
22 23 24 22 21 20 18 15 15 14 12 11 8 6 6 5 13 19 16 21 25 20 19 13 15 17 16 20 18 20 22 18 17 18 21 21 11 7 12 11 15 17 16 16 6 2 3
22 22 22 23 22 21 20 17 15 13 12 9 8 8 8 8 7 12 18 18 20 19 17 19 17 14 16 19 17 22 20 19 13 17 13 17 9 8 2 8 13 14 16 17 16 11 4
22 22 22 22 22 22 21 19 17 13 11 8 7 5 8 14 14 10 13 19 19 18 19 20 18 22 20 19 19 12 19 17 17 17 17 16 13 9 8 7 8 8 12 12 13 7 5
23 23 24 23 22 22 21 21 18 15 12 8 8 7 10 9 18 21 18 12 16 19 18 19 19 18 19 16 19 15 17 17 17 17 16 14 10 11 8 8 7 6 7 9 10 10 8
21 22 23 24 23 23 22 21 21 19 14 9 8 10 12 16 14 19 20 20 18 17 14 18 17 18 19 17 19 16 15 16 13 16 15 15 9 10 7 7 7 9 10 12 13 13 14
21 22 23 24 24 24 23 22 20 18 18 14 10 7 8 10 12 15 18 19 16 17 15 15 15 15 17 14 13 10 12 12 10 12 14 13 12 10 4 3 3 7 10 13 12 11 11
22 24 25 26 26 25 24 22 21 19 17 15 13 11 9 11 10 12 13 14 15 17 13 16 17 15 13 13 12 10 11 11 11 9 11 10 11 9 6 4 0 3 4 5 7 6 6
26 28 29 29 29 28 27 25 23 21 18 16 13 11 11 11 9 11 12 12 13 15 14 13 14 11 13 14 11 9 8 6 7 9 9 10 12 6 7 6 3 7 6 6 6 7 9
29 30 30 31 30 30 28 27 26 24 22 20 17 15 12 10 10 9 10 11 11 12 13 15 15 15 16 14 9 5 4 5 5 7 9 10 9 6 10 4 5 3 5 5 4 10 10
31 31 32 32 30 29 27 26 25 25 24 22 20 18 17 16 15 15 18 17 15 16 14 15 16 17 15 11 8 5 6 9 7 9 11 10 10 7 8 3 2 7 5 3 2 3 8
32 32 29 26 24 23 22 22 23 23 22 23 22 20 19 18 17 15 17 16 17 17 15 15 16 16 14 11 8 7 6 10 10 11 14 9 8 7 7 4 5 6 3 4 8 14 17
31 28 24 21 19 20 21 22 23 25 26 24 22 20 19 18 15 19 20 18 18 17 14 17 19 15 14 13 11 9 9 10 11 10 12 9 7 6 6 5 4 4 9 11 13 16 20
Wind_Direction
319 318 314 308 302 297 295 293 291 289 285 280 280 279 277 278 286 295 269 238 227 224 223 217 215 217 222 225 222 203 207 217 217 216 213 206 196 185 182 204 189 202 186 199 208 176 190
318 314 312 311 308 302 295 291 287 286 284 283 277 277 275 273 274 277 271 241 228 221 223 220 219 223 225 227 228 221 213 211 216 210 205 199 196 172 204 192 188 220 195 210 211 205 210
315 313 310 307 304 302 299 293 286 282 280 279 278 274 274 272 267 266 265 251 233 223 224 222 221 224 226 224 226 222 218 217 206 196 197 190 186 179 177 200 206 212 198 207 212 204 204
316 310 309 307 300 295 292 291 289 283 277 274 273 272 270 269 265 260 255 241 232 227 224 222 222 224 225 224 221 214 214 208 193 189 186 193 188 184 171 205 200 201 200 196 219 206 216
317 314 313 314 309 303 292 289 283 282 280 274 268 267 263 265 260 256 246 241 225 222 220 220 221 225 226 220 216 211 206 202 196 191 193 191 197 200 191 184 190 187 220 187 185 203 213
327 323 323 326 326 322 308 296 288 278 274 272 266 261 259 251 256 249 243 232 228 223 217 219 222 223 230 220 216 212 204 199 197 194 194 197 201 204 203 177 202 214 222 196 206 189 192
339 332 329 327 322 322 320 304 296 287 275 267 264 259 255 250 237 246 240 231 227 229 226 224 217 219 225 221 212 208 206 198 196 201 206 205 206 212 209 201 197 286 217 183 169 180 182
348 337 329 330 323 319 320 318 305 295 287 273 262 257 253 249 242 233 239 234 233 234 226 231 230 226 225 217 213 205 205 202 202 204 197 209 225 221 201 224 236 228 195 147 160 167 206
335 336 337 328 326 324 318 323 315 306 298 286 270 254 251 247 241 238 229 229 227 231 241 239 235 235 225 221 220 213 207 201 210 204 202 217 240 219 195 225 220 221 220 204 183 179 225
332 330 335 335 333 332 324 323 323 318 310 297 277 254 247 246 245 231 226 212 218 222 244 258 229 228 221 215 219 205 200 201 195 209 207 224 220 226 216 226 223 229 231 208 220 205 193
330 330 337 336 334 335 332 326 328 329 319 308 291 261 244 243 242 238 220 214 206 191 249 218 220 211 207 206 221 201 199 200 202 191 203 210 222 232 229 224 207 222 217 212 215 230 228
324 331 333 337 336 335 336 332 332 330 318 311 298 275 247 237 235 225 208 199 191 186 232 207 212 205 194 203 207 200 196 201 193 195 206 218 233 221 216 218 204 216 226 227 210 214 246
315 316 325 331 336 335 334 334 334 329 324 319 300 276 255 238 230 220 197 184 178 225 208 223 206 200 194 200 208 205 200 200 200 193 213 220 233 224 216 206 206 199 170 140 179 202 229
315 316 318 321 328 330 327 330 335 332 334 335 319 274 238 214 235 215 190 180 221 208 206 207 193 181 177 196 206 194 202 205 207 201 196 196 187 228 217 205 203 196 180 180 209 190 204
339 332 330 326 323 324 325 322 327 330 333 338 335 305 266 227 205 214 192 190 221 204 201 196 166 167 184 196 205 193 192 198 215 202 198 202 203 214 212 209 201 208 211 229 277 283 265
352 348 342 337 333 326 324 323 318 321 325 328 319 306 313 249 212 195 193 209 240 230 241 193 186 193 204 202 191 184 176 204 213 212 206 198 158 200 211 206 204 192 200 209 213 226 226
351 354 352 346 341 335 332 328 317 313 314 316 306 299 301 274 204 189 197 216 240 261 250 205 202 206 203 205 191 183 199 210 217 209 209 212 191 186 194 192 190 203 204 211 206 231 242
359 357 356 355 349 342 341 337 322 313 309 303 290 285 287 256 194 196 222 216 232 250 243 236 223 207 187 177 180 191 206 211 207 206 204 205 197 162 199 212 208 203 205 208 195 209 214
4 5 1 359 358 353 349 347 336 323 309 293 275 271 273 222 205 228 229 235 235 238 235 217 230 232 218 204 196 202 211 213 202 204 195 193 187 142 168 235 229 221 220 222 228 241 219
8 8 5 4 1 358 353 356 353 338 323 301 268 257 239 221 214 240 246 245 240 237 232 232 224 239 230 208 214 227 214 208 206 203 202 195 184 190 178 160 183 200 217 224 222 219 204
11 10 8 7 9 5 360 357 356 356 344 320 276 252 259 245 236 249 253 249 244 235 226 224 225 220 208 200 204 208 203 203 201 198 196 193 193 200 185 191 201 213 220 224 226 230 237
11 12 8 8 8 8 8 4 360 360 2 348 297 274 270 258 255 245 244 247 248 238 232 220 216 213 210 213 208 209 205 201 193 201 200 202 190 200 197 226 238 236 242 247 248 249 252
4 2 359 358 357 357 360 360 360 1 2 356 347 323 286 281 258 240 240 241 246 227 228 224 216 210 203 208 205 206 203 204 208 198 202 203 194 175 155 225 246 272 248 246 251 251 254
349 347 344 342 341 341 341 343 345 346 347 350 350 338 315 294 274 255 251 243 239 226 224 218 205 194 196 187 186 180 185 193 197 197 203 195 190 171 138 132 288 243 256 227 224 230 240
337 337 335 333 331 329 327 325 324 323 324 325 324 322 316 308 294 259 254 245 229 219 220 207 197 200 189 167 158 148 153 177 184 193 192 183 179 152 150 175 268 245 207 192 213 262 275
335 335 331 329 327 323 320 317 314 310 306 304 302 300 295 290 279 269 245 225 218 217 205 195 193 185 182 175 167 148 128 171 154 146 169 179 184 169 159 173 203 141 162 193 271 279 274
331 331 330 329 329 329 329 327 318 308 300 291 286 282 277 272 268 253 229 226 222 212 210 202 190 184 190 182 169 155 162 166 154 161 161 158 163 160 160 178 218 210 226 272 233 287 288
332 333 335 335 339 344 350 354 351 344 327 305 285 272 265 262 261 255 235 230 219 216 215 208 193 198 195 181 184 161 166 176 173 172 169 163 161 177 184 179 245 205 218 271 288 294 298
335 336 337 339 344 347 348 349 350 352 353 342 312 280 264 253 252 238 231 224 218 222 227 205 203 200 196 190 193 184 161 163 163 169 174 175 187 179 194 194 208 241 289 296 300 303 305
Height
3066 3063 3061 3058 3057 3055 3054 3052 3051 3050 3050 3048 3048 3048 3047 3047 3045 3045 3044 3045 3046 3048 3050 3051 3053 3055 3057 3060 3063 3063 3064 3067 3069 3072 3075 3077 3080 3084 3086 3089 3093 3094 3098 3101 3103 3107 3108
3064 3061 3058 3055 3053 3051 3050 3049 3047 3046 3046 3045 3044 3044 3044 3044 3043 3043 3042 3042 3044 3045 3047 3049 3051 3053 3055 3058 3058 3061 3063 3064 3067 3070 3072 3075 3079 3083 3086 3089 3092 3093 3096 3099 3101 3104 3104
3061 3058 3055 3052 3049 3047 3045 3044 3043 3042 3041 3041 3041 3041 3041 3041 3040 3040 3040 3040 3041 3043 3045 3047 3048 3050 3052 3055 3056 3057 3060 3062 3064 3067 3070 3074 3077 3081 3084 3087 3088 3091 3093 3096 3098 3100 3099
3057 3054 3050 3047 3044 3042 3041 3039 3038 3037 3037 3036 3037 3037 3037 3038 3038 3038 3038 3038 3039 3041 3043 3045 3046 3048 3049 3052 3053 3055 3057 3060 3062 3065 3068 3071 3074 3077 3081 3083 3085 3088 3091 3093 3094 3096 3096
3053 3049 3046 3042 3039 3036 3035 3034 3033 3033 3032 3032 3032 3033 3034 3034 3035 3036 3036 3037 3038 3039 3041 3043 3045 3046 3048 3049 3051 3053 3055 3058 3061 3063 3067 3070 3073 3076 3079 3080 3084 3085 3086 3089 3091 3093 3095
3050 3046 3042 3039 3036 3033 3031 3029 3027 3027 3027 3027 3027 3028 3029 3030 3032 3033 3034 3035 3036 3037 3039 3041 3042 3046 3044 3046 3047 3050 3053 3056 3059 3062 3065 3068 3070 3073 3075 3077 3078 3082 3083 3086 3086 3090 3091
3048 3045 3040 3036 3033 3030 3028 3025 3022 3021 3021 3021 3021 3022 3024 3025 3027 3030 3032 3033 3036 3036 3036 3038 3038 3039 3041 3043 3044 3047 3051 3053 3056 3060 3062 3065 3067 3067 3071 3074 3075 3080 3082 3085 3084 3086 3088
3046 3043 3038 3034 3031 3028 3025 3021 3019 3017 3016 3016 3016 3017 3019 3020 3022 3024 3028 3030 3030 3033 3034 3034 3035 3036 3038 3039 3041 3044 3047 3051 3053 3055 3060 3063 3061 3067 3071 3074 3076 3077 3078 3082 3085 3086 3086
3044 3041 3036 3032 3028 3025 3022 3018 3015 3013 3012 3011 3011 3012 3013 3015 3017 3021 3023 3027 3028 3029 3031 3031 3032 3033 3035 3038 3038 3041 3044 3047 3050 3054 3055 3057 3061 3063 3067 3070 3073 3074 3076 3079 3083 3085 3084
3041 3038 3034 3029 3025 3021 3019 3016 3012 3010 3008 3007 3006 3006 3008 3010 3015 3015 3019 3021 3026 3028 3029 3027 3026 3027 3031 3033 3035 3038 3042 3046 3047 3050 3054 3056 3059 3061 3064 3066 3070 3071 3074 3077 3079 3080 3081
3039 3035 3031 3027 3023 3019 3015 3013 3010 3007 3005 3003 3002 3002 3003 3006 3009 3011 3017 3018 3021 3025 3027 3023 3021 3022 3025 3031 3032 3033 3036 3040 3044 3047 3051 3054 3054 3057 3060 3064 3066 3068 3070 3073 3076 3077 3080
3036 3031 3028 3024 3021 3017 3014 3011 3008 3005 3003 3001 2999 2998 3000 3002 3005 3009 3011 3014 3019 3025 3019 3016 3016 3018 3022 3023 3027 3030 3034 3038 3041 3045 3048 3050 3051 3054 3056 3058 3062 3064 3067 3070 3073 3077 3075
3033 3029 3025 3021 3018 3014 3011 3009 3005 3003 3001 2999 2997 2996 2997 2999 3002 3005 3008 3012 3019 3015 3013 3012 3012 3014 3019 3021 3023 3028 3030 3033 3038 3042 3043 3047 3048 3050 3053 3055 3057 3061 3064 3070 3074 3075 3067
3028 3024 3020 3018 3015 3012 3010 3007 3003 3001 2999 2996 2994 2994 2995 2997 3000 3002 3006 3011 3011 3007 3008 3008 3009 3013 3018 3019 3022 3024 3027 3031 3034 3037 3040 3042 3047 3045 3048 3050 3053 3055 3059 3059 3062 3064 3060
3026 3022 3018 3015 3012 3010 3007 3005 3002 3000 2997 2995 2993 2993 2993 2994 2996 3000 3005 3006 3002 3003 3004 3007 3010 3013 3015 3017 3019 3021 3025 3029 3030 3033 3037 3038 3039 3040 3042 3045 3051 3052 3053 3056 3057 3056 3057
3025 3020 3016 3013 3010 3007 3005 3003 3000 2998 2996 2994 2993 2992 2992 2993 2994 2997 3001 3002 3001 3002 3003 3005 3007 3010 3011 3013 3016 3018 3021 3022 3025 3028 3031 3033 3036 3037 3040 3043 3046 3047 3050 3054 3055 3056 3054
3025 3020 3016 3012 3008 3005 3003 3000 2998 2996 2995 2993 2992 2991 2991 2991 2993 2995 2997 2998 3000 3000 3002 3004 3005 3007 3008 3008 3013 3015 3017 3018 3019 3022 3026 3030 3033 3037 3038 3040 3041 3045 3046 3049 3050 3050 3047
3024 3020 3016 3012 3008 3004 3001 2998 2996 2994 2992 2991 2991 2991 2990 2990 2993 2993 2994 2993 2997 2998 3000 3002 3003 3004 3004 3006 3010 3011 3010 3013 3015 3019 3022 3027 3030 3033 3035 3037 3039 3040 3042 3044 3045 3047 3045
3025 3020 3017 3013 3008 3004 3000 2997 2994 2992 2991 2990 2989 2989 2989 2990 2991 2991 2991 2992 2993 2995 2996 2997 3000 3001 3002 3004 3007 3006 3008 3010 3012 3016 3019 3022 3025 3029 3034 3037 3035 3036 3039 3041 3042 3043 3044
3025 3022 3018 3013 3009 3005 3001 2997 2993 2991 2989 2989 2988 2988 2988 2989 2989 2989 2989 2989 2990 2991 2992 2994 2995 2996 2998 3000 3001 3003 3005 3007 3010 3013 3016 3019 3021 3022 3024 3027 3030 3032 3034 3036 3039 3041 3042
3027 3023 3020 3015 3011 3006 3002 2997 2994 2991 2988 2987 2986 2987 2987 2986 2987 2987 2987 2987 2987 2988 2989 2989 2991 2992 2994 2996 2998 2999 3001 3004 3007 3010 3014 3017 3019 3021 3023 3025 3028 3030 3032 3034 3036 3038 3040
3029 3023 3020 3016 3012 3008 3004 3000 2995 2992 2988 2987 2986 2985 2985 2984 2984 2984 2983 2983 2984 2985 2986 2986 2988 2988 2990 2993 2994 2996 2999 3002 3004 3008 3011 3013 3015 3018 3021 3023 3025 3027 3029 3030 3032 3034 3036
3028 3025 3021 3017 3013 3009 3005 3001 2997 2994 2990 2987 2985 2983 2982 2981 2980 2980 2980 2980 2980 2982 2983 2984 2985 2987 2988 2991 2992 2995 2997 3000 3002 3005 3007 3011 3013 3017 3020 3022 3023 3026 3026 3026 3029 3031 3033
3028 3023 3020 3017 3012 3008 3005 3001 2997 2994 2991 2988 2986 2984 2981 2979 2978 2978 2977 2977 2978 2979 2981 2981 2983 2984 2987 2988 2991 2993 2996 2997 3000 3003 3005 3008 3011 3015 3018 3021 3027 3023 3023 3024 3026 3028 3030
3026 3021 3017 3013 3009 3005 3002 2998 2995 2992 2990 2988 2985 2983 2980 2977 2976 2975 2975 2975 2975 2976 2979 2980 2982 2985 2986 2988 2990 2992 2995 2998 2999 3001 3004 3007 3009 3013 3017 3020 3022 3022 3022 3025 3025 3028 3028
3024 3018 3013 3008 3004 3000 2996 2993 2990 2987 2985 2983 2982 2980 2978 2976 2974 2973 2972 2973 2973 2974 2977 2978 2980 2982 2984 2986 2988 2990 2994 2996 2999 3001 3003 3006 3009 3012 3015 3017 3021 3020 3021 3022 3023 3025 3025
3021 3015 3009 3004 2999 2994 2990 2986 2983 2980 2978 2977 2976 2975 2974 2972 2971 2970 2969 2971 2972 2972 2974 2976 2978 2980 2983 2984 2987 2990 2992 2995 2998 3000 3003 3006 3008 3011 3013 3015 3017 3018 3020 3021 3025 3028 3023
3013 3009 3004 2999 2995 2991 2986 2982 2978 2975 2972 2970 2969 2968 2967 2967 2966 2966 2965 2967 2967 2969 2970 2973 2977 2978 2981 2983 2985 2987 2989 2993 2995 2998 3001 3004 3008 3010 3012 3014 3016 3016 3018 3022 3022 3019 3018
3008 3003 3000 2996 2992 2989 2985 2981 2977 2973 2969 2964 2962 2961 2960 2961 2961 2960 2960 2962 2964 2965 2969 2968 2970 2973 2976 2979 2981 2984 2986 2990 2994 2996 3000 3004 3005 3008 3011 3012 3013 3014 3015 3015 3015 3014 3013